"Pseudo-MPEC" for C0EAAG5

Created 2022 Nov 26 21:22:07 UT using Find_Orb

Click here for an explanation of pseudo-MPECs

 
 Astrometry: 
     C0EAAG5* C2022 11 24CSNmWlFRNTl_ka1AstrometrylJ9$[7oF*PoeLredacted;FuIIWV00
     C0EAAG5  C2022 11 24o=cwKU]=pc(chBA#3jIq@rclick6Gs1ps4g***G'/#M\c6$+1'r!V00
     C0EAAG5  C2022 11 24*CvW3CPEm#3Z-=dTyN1qT9hereS=)W;8NpCKF_i*^]-q=n5\hd4_V00
     C0EAAG5  C2022 11 24'960Jl%cAv`lB:QfDi#QatyPV!ti#9pp)'uu,8p\x=%lHE68HAyBV00
     C0EAAG5 mC2022 11 25@OSumMeJ@5u#py#.I9`frR5=BM?=Lb7!o2HvQr=gG@]=s:%CT?/LV00
     C0EAAG5 mC2022 11 25KDDmKcdw%!Rthq?Mh`fortbDl\^KYlkB?A=dl(D`^vZLQ+EXs,,6V00
     C0EAAG5 mC2022 11 25PRLh$+[IMT?Hq];Qf97JirPtWuR+'9AWEmIR[LY5l(,Ow]o6O?%!V00
     C0EAAG5 mC2022 11 25oXE,cLy*^EQ^n)suc.gEnpB+fXZ+7[U7:xWwbdBmkwuf:]-_Q#']V00
     C0EAAG5 2C2022 11 26i9qOPS^BG8@$q@]n4__e5%Yr2J5yaY8Xexplanation.Beld2*^7J04
     C0EAAG5 2C2022 11 2601_$Eycd4BC`T;dC:K,^0OIVm\:,M=^@^U]Hi%FP3;nVV@3$wkMTJ04
     C0EAAG5 mC2022 11 269cnE61auh[3C5gw[q0Qe@-+S#cQok_bTS-k?H@a)S*!hqx$B.U.NV00
     C0EAAG5 mC2022 11 26m\?W3hHr*%kGx9g_vtjw=;Ou8]PFfF9?J5.La8)@**?wrXNFHKc!V00
     C0EAAG5 mC2022 11 26^V8hVXhIZ.NIpdb]+Fh$D:\r`_w$WR3E_C#Ml85@a+uLHX1nF58`V00

Station data:
(J04) ESA Optical Ground Station, Tenerife  (N28.300922 W16.511830)  Canary
   Islands (Spain).  Observer D. Abreu. Measurers M. Micheli, D. Koschny, E.
   Schwab, M. Busch, A. Knöfel. 1.0-m f/4.4 reflector + CCD.
(V00) Kitt Peak-Bok  (N31.963125 W111.600190)  US/Arizona.  Observers T. A.
   Pruyne, B. M. Africano, E. J. Christensen, G. A. Farneth, D. C. Fuls, A.
   R. Gibbs, A. D. Grauer, H. Gröller, J. A. Johnson, R. A. Kowalski, S. M.
   Larson, G. J. Leonard, D. Rankin, R. L. Seaman, F. C. Shelly, K. W.
   Wierzchoś. 2.25-m reflector + CCD.

Orbital elements:  C0EAAG5
   Perihelion 2022 Sep 23.41005 +/- 0.034 TT =  9:50:28 (JD 2459845.91005)
Epoch 2022 Nov 26.0 TT = JDT 2459909.5   Earth MOID: 0.0009   AutoNEOCP
M  49.63081365 +/- 0.10             (J2000 ecliptic)
n   0.78048198 +/- 0.00117          Peri.  113.26073 +/- 0.023
a   1.16831726 +/- 0.00117          Node   233.01308 +/- 0.0049
e   0.2647103 +/- 0.0012            Incl.    2.24976 +/- 0.009
P   1.26/461.24d           H 27.8   G  0.15   U  8.2
q 0.85905157 +/- 0.000545    Q 1.47758294 +/- 0.00288
From 13 observations 2022 Nov. 24-26; mean residual 0".22
Residuals in arcseconds: 
221124 V00  .48+  .06+    221125 V00  .03-  .01-    221126 V00  .22-  .18+    
221124 V00  .34-  .05-    221125 V00  .13-  .32+    221126 V00  .07+  .37-    
221124 V00  .09+  .13-    221125 V00  .03+  .06+    221126 V00  .04+  .38+    
221124 V00  .21-  .12-    221126 J04  .01-  .25-    
221125 V00  .02+  .50+    221126 J04  .13+  .17-    

Ephemerides (geocentric):
Date (UTC) HH   RA             Dec           delta  r     elong  mag " sig PA
---- --------  ------------   ------------  ------ ------ -----  --- --------
2022 11 26 21  05 10 07.967   +12 50 37.77  .04743 1.0324 163.3 22.1 .681  63
2022 11 26 22  05 09 55.306   +12 50 27.90  .04760 1.0326 163.4 22.1 .695  64
2022 11 26 23  05 09 42.735   +12 50 18.12  .04778 1.0328 163.5 22.1 .710  64
2022 11 27 00  05 09 30.251   +12 50 08.42  .04795 1.0330 163.5 22.1 .725  65
2022 11 27 01  05 09 17.855   +12 49 58.80  .04813 1.0332 163.6 22.1 .740  65
2022 11 27 02  05 09 05.544   +12 49 49.26  .04830 1.0333 163.7 22.1 .755  66
2022 11 27 03  05 08 53.319   +12 49 39.80  .04848 1.0335 163.8 22.2 .770  66
2022 11 27 04  05 08 41.179   +12 49 30.42  .04866 1.0337 163.8 22.2 .786  66
2022 11 27 05  05 08 29.122   +12 49 21.12  .04883 1.0339 163.9 22.2 .801  67
2022 11 27 06  05 08 17.148   +12 49 11.91  .04901 1.0341 164.0 22.2 .817  67
2022 11 27 07  05 08 05.256   +12 49 02.77  .04918 1.0342 164.0 22.2 .833  68
2022 11 27 08  05 07 53.445   +12 48 53.71  .04936 1.0344 164.1 22.2 .849  68
2022 11 27 09  05 07 41.714   +12 48 44.73  .04954 1.0346 164.2 22.2 .865  68
2022 11 27 10  05 07 30.063   +12 48 35.83  .04971 1.0348 164.3 22.2 .881  68
2022 11 27 11  05 07 18.491   +12 48 27.01  .04989 1.0349 164.3 22.2 .898  69
2022 11 27 12  05 07 06.997   +12 48 18.26  .05007 1.0351 164.4 22.2 .914  69
2022 11 27 13  05 06 55.579   +12 48 09.60  .05024 1.0353 164.5 22.2 .931  69
2022 11 27 14  05 06 44.239   +12 48 01.01  .05042 1.0355 164.5 22.2 .947  70
2022 11 27 15  05 06 32.974   +12 47 52.50  .05060 1.0357 164.6 22.2 .964  70
2022 11 27 16  05 06 21.783   +12 47 44.06  .05078 1.0358 164.7 22.2 .981  70
2022 11 27 17  05 06 10.667   +12 47 35.71  .05095 1.0360 164.7 22.2 1.00  70
2022 11 27 18  05 05 59.625   +12 47 27.43  .05113 1.0362 164.8 22.2 1.02  71
2022 11 27 19  05 05 48.655   +12 47 19.22  .05131 1.0364 164.9 22.2 1.03  71
2022 11 27 20  05 05 37.758   +12 47 11.09  .05148 1.0366 164.9 22.2 1.05  71
2022 11 27 21  05 05 26.932   +12 47 03.04  .05166 1.0367 165.0 22.3 1.07  71
2022 11 27 22  05 05 16.176   +12 46 55.06  .05184 1.0369 165.1 22.3 1.08  71
2022 11 27 23  05 05 05.491   +12 46 47.15  .05202 1.0371 165.1 22.3 1.10  72
2022 11 28 00  05 04 54.875   +12 46 39.33  .05219 1.0373 165.2 22.3 1.12  72
2022 11 28 01  05 04 44.328   +12 46 31.57  .05237 1.0375 165.3 22.3 1.14  72
2022 11 28 02  05 04 33.849   +12 46 23.89  .05255 1.0376 165.3 22.3 1.15  72
2022 11 28 03  05 04 23.437   +12 46 16.28  .05273 1.0378 165.4 22.3 1.17  72
2022 11 28 04  05 04 13.092   +12 46 08.75  .05291 1.0380 165.5 22.3 1.19  73
2022 11 28 05  05 04 02.814   +12 46 01.28  .05308 1.0382 165.5 22.3 1.21  73
2022 11 28 06  05 03 52.600   +12 45 53.90  .05326 1.0383 165.6 22.3 1.23  73
2022 11 28 07  05 03 42.452   +12 45 46.58  .05344 1.0385 165.6 22.3 1.24  73
2022 11 28 08  05 03 32.368   +12 45 39.34  .05362 1.0387 165.7 22.3 1.26  73
2022 11 28 09  05 03 22.348   +12 45 32.16  .05380 1.0389 165.8 22.3 1.28  73
2022 11 28 10  05 03 12.392   +12 45 25.06  .05398 1.0391 165.8 22.3 1.30  73
2022 11 28 11  05 03 02.497   +12 45 18.03  .05415 1.0392 165.9 22.3 1.32  73
2022 11 28 12  05 02 52.665   +12 45 11.07  .05433 1.0394 165.9 22.3 1.34  74
2022 11 28 13  05 02 42.895   +12 45 04.18  .05451 1.0396 166.0 22.3 1.35  74
2022 11 28 14  05 02 33.185   +12 44 57.37  .05469 1.0398 166.1 22.3 1.37  74
2022 11 28 15  05 02 23.535   +12 44 50.62  .05487 1.0400 166.1 22.4 1.39  74
2022 11 28 16  05 02 13.946   +12 44 43.94  .05505 1.0401 166.2 22.4 1.41  74
2022 11 28 17  05 02 04.416   +12 44 37.33  .05523 1.0403 166.2 22.4 1.43  74
2022 11 28 18  05 01 54.944   +12 44 30.79  .05541 1.0405 166.3 22.4 1.45  74
2022 11 28 19  05 01 45.531   +12 44 24.32  .05558 1.0407 166.3 22.4 1.46  74
2022 11 28 20  05 01 36.175   +12 44 17.91  .05576 1.0409 166.4 22.4 1.48  74